Find Starlink 6299

NORAD ID: 57358 Int'l Des: 2023-099 Owner: SPXS Country: US Constellation: starlink operational
LEOCIRCULAR

Live-Position

3D-Globus wird geladen...

Über Starlink 6299

Beschreibung wird geladen...

Nächste Überflüge

Passes for default location (London). Set your location on the main map for personalized predictions.

Höhenverlauf

Loading altitude history...

Zweizeiliger Elementsatz

1 57358U 23099AG 26104.86980337 -.00007487 00000-0 -27635-3 0 9992
2 57358 43.0072 36.4073 0000561 251.6482 108.4309 15.25946686152486
Epoch: 14. Apr. 2026 • Age: 11 hours

Aktueller Status

Höhe 491.9 km
Geschwindigkeit 7.62 km/s
Subsatellitenpunkt -18.55°S, 53.14°E
Startdatum 16. Juli 2023
Alter 2.7 years
Typ internet

Technische Details

Klassifizierung Payload
Masse 305.00 kg
Trockenmasse 290.00 kg
Gesamtmasse 305.00 kg
Länge 0.20 m
Durchmesser 2.80 m
Spannweite 9.00 m
Form Box + pan
Hersteller SPXS
Bus-Typ Starlink
Phasenstatus In Orbit
Besitzer/Staat SPXS/US

Most Searched